TimeCDT,TemperatureF,Dew PointF,Humidity,Sea Level PressureIn,VisibilityMPH,Wind Direction,Wind SpeedMPH,Gust SpeedMPH,PrecipitationIn,Events,Conditions,WindDirDegrees,DateUTC
12:53 AM,70.0,48.0,46,29.74,10.0,South,13.8,-,N/A,,Clear,190,2012-09-11 05:53:00
1:53 AM,68.0,48.0,49,29.72,10.0,South,11.5,-,N/A,,Clear,190,2012-09-11 06:53:00
2:53 AM,66.0,48.9,54,29.72,10.0,South,10.4,-,N/A,,Clear,180,2012-09-11 07:53:00
3:53 AM,64.9,48.9,56,29.72,10.0,South,6.9,-,N/A,,Clear,180,2012-09-11 08:53:00
4:53 AM,64.0,50.0,60,29.72,10.0,South,6.9,-,N/A,,Clear,180,2012-09-11 09:53:00
5:53 AM,63.0,50.0,63,29.72,10.0,South,6.9,-,N/A,,Clear,170,2012-09-11 10:53:00
6:53 AM,63.0,50.0,63,29.72,10.0,SSE,5.8,-,N/A,,Clear,160,2012-09-11 11:53:00
7:53 AM,64.0,51.1,63,29.75,10.0,South,10.4,-,N/A,,Clear,180,2012-09-11 12:53:00
8:53 AM,64.9,51.1,61,29.71,10.0,SE,11.5,-,N/A,,Clear,140,2012-09-11 13:53:00
9:53 AM,68.0,52.0,56,29.70,10.0,SSE,10.4,-,N/A,,Clear,160,2012-09-11 14:53:00
10:53 AM,70.0,52.0,53,29.77,10.0,WSW,13.8,-,N/A,,Clear,240,2012-09-11 15:53:00
11:53 AM,68.0,54.0,61,29.70,10.0,SSE,10.4,16.1,0.00,,Partly Cloudy,150,2012-09-11 16:53:00
12:53 PM,73.9,53.1,48,29.68,10.0,South,16.1,23.0,0.00,,Clear,170,2012-09-11 17:53:00
1:53 PM,79.0,53.1,40,29.64,10.0,SSE,15.0,31.1,N/A,,Clear,160,2012-09-11 18:53:00
2:53 PM,82.9,52.0,34,29.68,10.0,SSW,15.0,24.2,N/A,,Clear,210,2012-09-11 19:53:00
3:53 PM,82.0,53.1,37,29.67,10.0,South,10.4,-,N/A,,Clear,190,2012-09-11 20:53:00
4:53 PM,84.9,52.0,32,29.67,10.0,WSW,11.5,20.7,N/A,,Clear,250,2012-09-11 21:53:00
5:53 PM,82.0,54.0,38,29.68,10.0,WNW,8.1,-,N/A,,Clear,300,2012-09-11 22:53:00
6:53 PM,78.1,53.1,42,29.70,10.0,WNW,5.8,-,N/A,,Clear,290,2012-09-11 23:53:00
7:53 PM,75.0,54.0,48,29.72,10.0,WNW,3.5,-,N/A,,Clear,290,2012-09-12 00:53:00
8:53 PM,73.0,50.0,44,29.77,10.0,NNW,11.5,-,N/A,,Clear,330,2012-09-12 01:53:00
9:53 PM,72.0,46.0,40,29.82,10.0,NW,11.5,-,N/A,,Clear,310,2012-09-12 02:53:00
10:53 PM,70.0,43.0,38,29.84,10.0,NW,13.8,19.6,N/A,,Clear,320,2012-09-12 03:53:00
11:53 PM,66.9,39.0,36,29.89,10.0,WNW,4.6,-,0.00,,Clear,300,2012-09-12 04:53:00